Regional Weather Roundup
Issued by NWS Midland/Odessa, TX

Skip options and go directly to product.
Home | Oldest Version | Previous Version | Current Version | All | Graphics & Text | Save Text | Print | Product List | Glossary On

Skip product version selection by date and time.   
602
ASUS44 KMAF 240810
RWRMAF
MIDLAND AREA WEATHER ROUNDUP
NATIONAL WEATHER SERVICE MIDLAND TX
300 AM CDT THU JUL 24 2014

...IN SOUTHWEST TEXAS AND SOUTHEAST NEW MEXICO...

CITY           SKY/WX    TMP DP  RH WIND       PRES   REMARKS
ALPINE         PTCLDY    69  57  65 CALM      30.29F
ANDREWS        FAIR      76  55  48 CALM      30.18S
ARTESIA        CLEAR     75  54  46 S3        30.18F
BIG SPRING     MOCLDY    79  58  48 E7        30.17S
CARLSBAD       CLEAR     79  51  37 SW5       30.15F
DRYDEN           N/A     82  60  47 N6        30.08S
FORT STOCKTON  PTCLDY    77  56  48 SE7       30.15S
GUAD PASS      CLEAR     73  49  42 E13       30.33F
HOBBS          CLEAR     75  52  43 E7        30.22F
MARFA          PTCLDY    66  54  63 NE7       30.28F
MIDLAND AIRPK  PTCLDY    80  60  50 SE5       30.16S
MIDLAND INTL   PTCLDY    79  61  53 SE8       30.15S
ODESSA         PTCLDY    79  59  50 SE5       30.16F
PECOS          CLEAR     76  55  47 NE6       30.12S
PRESIDIO       FAIR      83  51  33 NE5       30.11S
SEMINOLE       PTCLDY    74  54  49 NE3       30.20F
SNYDER         MOCLDY    78  62  58 S3        30.15S
WINK           CLEAR     78  61  55 E7        30.12F
$$
...OTHER STATIONS IN TEXAS...

CITY           SKY/WX    TMP DP  RH WIND       PRES   REMARKS
ABILENE        MOCLDY    78  65  63 SE5       30.09F
AMARILLO       CLEAR     70  61  73 S9        30.20F
AUSTIN         MOCLDY    77  70  79 NE3       30.00F
BROWNSVILLE    PTCLDY    78  75  90 SE5       29.98F
CORPUS CHRISTI MOCLDY    78  75  90 CALM      29.99F
DALLAS FTW     MOCLDY    79  66  64 W14       29.98F
DEL RIO        PTCLDY    84  65  52 E6        30.01S
EL PASO        CLEAR     79  51  37 SE6       30.18S
HOUSTON INT    MOCLDY    78  71  79 CALM      29.98S
LUBBOCK        CLEAR     73  61  65 SE6       30.18F
SAN ANGELO     PTCLDY    77  64  64 CALM      30.09F
SAN ANTONIO    PTCLDY    81  72  74 S7        30.02F
WACO           PTCLDY    76  66  71 CALM      30.00S
WICHITA FALLS  NOT AVBL
$$
...OTHER LOCATIONS IN NEW MEXICO...

CITY           SKY/WX    TMP DP  RH WIND       PRES   REMARKS
ALAMAGORDO     PTCLDY    75  46  35 SE5       30.22F
ALBUQUERQUE    PTCLDY    75  49  39 E6        30.31F
CANNON AFB     CLEAR     69  60  71 SE2       30.27F
CLOVIS         NOT AVBL
HOLLOMAN AFB   PTCLDY    73  45  35 SE3       30.20F
ROSWELL        CLEAR     76  54  46 W7        30.20F
RUIDOSO        CLEAR     66  45  45 MISG      30.46F
SANTA FE       PTCLDY    67  51  56 VRB3      30.40S
TRUTH OR CONSE LGT RAIN  73  53  49 NW5       30.25F
TUCUMCARI      CLEAR     75  58  55 S9        30.22F
$$

USA.gov is the U.S. government's official web portal to all federal, state and local government web resources and services.